Weather History for KITH - February, 2013

Change the Weather History Date:

Wednesday, February 27, 2013

  Actual Average Record
Temperature  
Mean Temperature 34 °F -  
Max Temperature 36 °F 33 °F 68 °F (1997)
Min Temperature 32 °F 14 °F -18 °F (1963)
Degree Days  
Heating Degree Days 32    
Moisture  
Dew Point 32 °F    
Average Humidity 93    
Maximum Humidity 100    
Minimum Humidity 87    
Precipitation  
Precipitation 1.13 in - - ()
Sea Level Pressure  
Sea Level Pressure 29.65 in    
Wind  
Wind Speed 6 mph (ESE)    
Max Wind Speed 12 mph    
Max Gust Speed 18 mph    
Visibility 5 miles    
Events Fog , Rain , Snow    
Averages and records for this station are not official NWS values.
T = Trace of Precipitation, MM = Missing Value Source: NWS Daily Summary

Daily Weather History Graph

Daily Weather History Graph

Search for Another Location

Airport or City:

Trip Planner

Search our weather history database for the weather conditions in past years. The results will help you decide how hot, cold, wet, or windy it might be!

Date:

Astronomy

Feb. 27, 2013 Rise Set
Actual Time 6:44 AM EST 5:53 PM EST
Civil Twilight 6:15 AM EST 6:21 PM EST
Nautical Twilight 5:43 AM EST 6:54 PM EST
Astronomical Twilight 5:10 AM EST 7:27 PM EST
Moon 8:16 PM EST (2/27) 7:14 AM EST (2/27)
Length of Visible Light 12h 05m
Length of Day
11h 09m
Waning Gibbous, 96% of the Moon is Illuminated
Feb 27
Waning Gibbous
Mar 4
Last Quarter
Mar 11
New
Mar 19
First Quarter
Mar 27
Full

Hourly Weather History & Observations

Time (EST) Temp. Windchill Dew Point Humidity Pressure Visibility Wind Dir Wind Speed Gust Speed Precip Events Conditions
12:14 AM 33.8 °F 27.7 °F 30.2 °F 87% 29.84 in 2.5 mi East 6.9 mph - 0.03 in Snow Light Snow
12:21 AM 32.0 °F 24.8 °F 30.2 °F 93% 29.84 in 3.0 mi ESE 8.1 mph - 0.03 in Snow Light Snow
12:32 AM 32.0 °F 25.6 °F 30.2 °F 93% 29.83 in 2.5 mi East 6.9 mph - 0.04 in Snow Light Snow
12:37 AM 32.0 °F 26.4 °F 30.2 °F 93% 29.83 in 3.0 mi ESE 5.8 mph - 0.04 in Snow Light Snow
12:56 AM 32.9 °F 25.9 °F 31.1 °F 93% 29.85 in 5.0 mi East 8.1 mph - 0.05 in Snow Light Snow
1:04 AM 33.8 °F 27.7 °F 30.2 °F 87% 29.81 in 9.0 mi East 6.9 mph - 0.00 in Snow Light Snow
1:56 AM 32.9 °F 25.9 °F 31.1 °F 93% 29.80 in 8.0 mi East 8.1 mph - 0.03 in Rain Light Rain
2:05 AM 33.8 °F 27.0 °F 30.2 °F 87% 29.76 in 9.0 mi East 8.1 mph - 0.00 in Rain Light Rain
2:15 AM 33.8 °F 25.8 °F 30.2 °F 87% 29.75 in 9.0 mi East 10.4 mph 16.1 mph 0.00 in Rain Light Rain
2:25 AM 33.8 °F 28.6 °F 30.2 °F 87% 29.75 in 8.0 mi ESE 5.8 mph - 0.00 in Rain Light Rain
2:56 AM 32.9 °F 25.3 °F 30.0 °F 89% 29.74 in 8.0 mi ESE 9.2 mph - 0.02 in Rain Light Rain
3:56 AM 32.9 °F 25.3 °F 30.0 °F 89% 29.70 in 10.0 mi East 9.2 mph 18.4 mph 0.01 in Rain Light Rain
4:56 AM 32.9 °F 24.7 °F 30.0 °F 89% 29.68 in 10.0 mi East 10.4 mph - 0.00 in   Overcast
5:56 AM 32.9 °F 24.1 °F 30.0 °F 89% 29.65 in 10.0 mi East 11.5 mph - 0.00 in   Overcast
6:18 AM 33.8 °F 27.0 °F 30.2 °F 87% 29.61 in 10.0 mi ESE 8.1 mph - N/A   Overcast
6:56 AM 34.0 °F 28.0 °F 31.1 °F 89% 29.63 in 10.0 mi ESE 6.9 mph - 0.00 in Rain Light Rain Showers
7:56 AM 34.0 °F 28.0 °F 32.0 °F 92% 29.63 in 10.0 mi ESE 6.9 mph - 0.00 in   Overcast
8:38 AM 35.6 °F 31.7 °F 32.0 °F 87% 29.60 in 2.0 mi ESE 4.6 mph - 0.69 in Snow Light Snow
8:40 AM 35.6 °F 30.7 °F 32.0 °F 87% 29.60 in 4.0 mi East 5.8 mph - 0.69 in Snow Light Snow Showers
8:56 AM 34.9 °F 30.8 °F 32.9 °F 92% 29.62 in 4.0 mi East 4.6 mph - 0.70 in Rain Light Rain Showers
9:56 AM 34.9 °F - 32.9 °F 92% 29.61 in 5.0 mi Calm Calm - 0.02 in Rain Light Rain Showers
10:11 AM 35.6 °F - 33.8 °F 93% 29.58 in 4.0 mi Calm Calm - 0.01 in Rain , Snow Light Rain Showers
10:56 AM 34.9 °F - 32.9 °F 92% 29.60 in 2.0 mi Calm Calm - 0.07 in Rain , Snow Light Rain Showers
11:42 AM 32.0 °F 24.2 °F 32.0 °F 100% 29.59 in 0.5 mi NW 9.2 mph - 0.07 in Fog , Snow Light Snow
11:56 AM 32.0 °F 24.2 °F 32.0 °F 100% 29.62 in 0.2 mi NW 9.2 mph - 0.09 in Fog , Snow Snow
11:58 AM 32.0 °F 24.2 °F 32.0 °F 100% 29.59 in 0.2 mi NW 9.2 mph - 0.00 in Fog , Snow Snow
12:08 PM 32.0 °F 24.8 °F 32.0 °F 100% 29.59 in 0.2 mi WNW 8.1 mph - 0.02 in Fog , Snow Snow
12:56 PM 32.0 °F 27.5 °F 32.0 °F 100% 29.61 in 0.5 mi NNW 4.6 mph - 0.04 in Fog , Snow Snow
1:13 PM 33.8 °F 29.6 °F 32.0 °F 93% 29.57 in 1.5 mi NNE 4.6 mph - 0.03 in Snow Light Snow
1:34 PM 33.8 °F 30.8 °F 32.0 °F 93% 29.56 in 2.5 mi ENE 3.5 mph - 0.04 in Snow Light Snow
1:56 PM 34.0 °F 31.0 °F 32.9 °F 96% 29.58 in 2.5 mi East 3.5 mph - 0.04 in Snow Light Snow
2:40 PM 33.8 °F - 33.8 °F 100% 29.53 in 2.0 mi Calm Calm - 0.03 in Snow Light Snow
2:56 PM 34.9 °F - 32.9 °F 92% 29.57 in 2.0 mi Calm Calm - 0.03 in Snow Light Snow
3:13 PM 33.8 °F 28.6 °F 32.0 °F 93% 29.54 in 0.1 mi West 5.8 mph - 0.00 in Fog , Snow Snow
3:56 PM 32.9 °F 28.5 °F 32.0 °F 96% 29.59 in 0.2 mi West 4.6 mph - 0.02 in Fog , Snow Light Snow
4:56 PM 32.9 °F - 32.0 °F 96% 29.59 in 2.0 mi Calm Calm - 0.00 in Snow Light Snow
5:56 PM 32.9 °F - 32.0 °F 96% 29.60 in 5.0 mi Calm Calm - 0.00 in   Mostly Cloudy
6:56 PM 34.0 °F - 32.9 °F 96% 29.61 in 7.0 mi Calm Calm - 0.00 in Rain Light Rain
7:56 PM 34.9 °F 29.9 °F 34.0 °F 97% 29.60 in 10.0 mi SW 5.8 mph - 0.00 in Rain Light Rain
9:56 PM 34.9 °F 29.9 °F 34.0 °F 97% 29.61 in 10.0 mi SW 5.8 mph - 0.00 in Rain Light Rain
10:56 PM 34.9 °F 32.0 °F 34.0 °F 97% 29.61 in 10.0 mi SW 3.5 mph - 0.01 in   Overcast
11:16 PM 35.6 °F 31.7 °F 33.8 °F 93% 29.57 in 10.0 mi WSW 4.6 mph - 0.00 in Rain Light Rain
11:30 PM 35.6 °F - 33.8 °F 93% 29.57 in 10.0 mi Calm Calm - 0.00 in Rain Light Rain
11:56 PM 36.0 °F - 34.0 °F 93% 29.60 in 10.0 mi Calm Calm - 0.00 in Rain Light Rain